sat.trackr.live / text

‹ back to catalog

STARLINK-5601

NORAD 55744 · 2023-028D

PAYLOAD ACTIVE UNKNOWN

§ Identity

Operator
Country
US
Launch date
2023-03-03
Launch site
AFWTR
Launch vehicle
Mass (kg)
RCS (m²)

Purposes: comms

External: N2YO · Heavens-Above · Gunter

§ Orbital elements

Epoch: 2026-09-20T22:00:03.000096Z

Period
95.49 min
Inclination
70.0004°
Eccentricity
0.0004255
Mean motion
15.07954824 rev/d
Perigee alt
539.5 km
Apogee alt
545.4 km
Semi-major
6,920.6 km
B*
4.6745e-3
RAAN
112.2476°
Arg perigee
275.5610°
Mean anomaly
50.3965°
Rev number
576

§ Raw data

STARLINK-56011 55744U 23028D   26263.91670139  .00072624  00000+0  46745-2 0  99932 55744  70.0004 112.2476 0004255 275.5610  50.3965 15.07954824  5764

JSON: /api/v1/satellites/55744 · /tle

For live sub-satellite position, see the globe view (requires WebGL).

§ Visibility from observer

Set your observer location to see the next 7 days of passes ≥ 10°. The values pass through the URL so the page stays shareable.

No JS? Fill the form by hand. The geolocation button needs JavaScript.